x

Gravelly Shoals Light Mi (gslm4) Weather Station

9:40am - Tue 29th Jul 2014 All times are CDT. -5 hours from GMT.

  • Wind
    15mph, 20mph gusts
  • Air Temp 60°f
  • Sea Pressure 1014.9mb
  • Gravelly Shoals Light Mi
  • Gravelly Shoals Light Mi

More Historic Weather Station data

Upgrade to MSW Pro to gain access to the past 30 days of data for over 8000 Wavebouys and Weather Stations around the globe.

Join Pro

Comparision Forecast

View Surf forecast
   
Tue 07/29 9:40am 15 20 mph 1014.9mb 60f
9:30am 16 17 mph 1014.9mb 60f
9:20am 14 17 mph 1014.9mb 61f
9:10am 13 15 mph 1014.9mb 60f
9:05am 13 21 mph 1017.9mb 59f
9:00am 14 18 mph 1014.9mb 59f
8:40am 16 18 mph 1014.9mb 58f
8:30am 17 20 mph 1014.9mb 58f
8:20am 16 17 mph 1014.9mb 58f
8:10am 16 18 mph 1014.9mb 57f
8:04am 16 22 mph 1014.9mb 57f
8:00am 16 20 mph 1014.9mb 57f
7:40am 20 22 mph 1015.2mb 57f
7:30am 17 20 mph 1015.2mb 59f
7:20am 13 16 mph 1014.9mb 58f
7:10am 15 17 mph 1014.9mb 58f
7:04am 16 17 mph 1014.9mb 58f
7:00am 15 16 mph 1014.9mb 58f
6:40am 14 16 mph 1014.9mb 57f
6:30am 13 14 mph 1014.9mb 57f
6:20am 10 11 mph 1014.9mb 57f
6:10am 11 14 mph 1014.9mb 57f
6:04am 11 21 mph 1014.9mb 56f
6:00am 13 14 mph 1014.9mb 56f
5:40am 14 17 mph 1014.9mb 57f
5:30am 15 18 mph 1014.9mb 56f
5:20am 16 21 mph 1014.9mb 56f
5:10am 17 21 mph 1014.9mb 56f
5:03am 16 21 mph 1014.9mb 56f
5:00am 16 18 mph 1014.9mb 56f
4:40am 16 17 mph 1014.9mb 56f
4:30am 15 16 mph 1014.9mb 56f
4:20am 13 16 mph 1014.9mb 56f
4:10am 14 16 mph 1014.9mb 57f
4:03am 13 17 mph 1014.9mb 57f
4:00am 13 15 mph 1014.9mb 57f
3:40am 15 17 mph 1014.9mb 57f
3:30am 15 16 mph 1014.6mb 57f
3:20am 14 16 mph 1014.6mb 56f
3:10am 15 17 mph 1014.6mb 57f
3:02am 15 18 mph 1014.6mb 57f
3:00am 16 18 mph 1014.9mb 57f
2:40am 16 18 mph 1014.9mb 57f
2:30am 15 17 mph 1014.9mb 57f
2:20am 15 16 mph 1014.9mb 57f
2:10am 13 17 mph 1015.2mb 57f
2:02am 15 18 mph 1015.2mb 57f
2:00am 15 18 mph 1015.2mb 57f
1:40am 11 14 mph 1015.2mb 58f
1:30am 10 13 mph 1015.2mb 58f
1:20am 10 13 mph 1015.2mb 58f
1:10am 11 13 mph 1015.2mb 58f
1:02am 11 15 mph 1015.6mb 58f
1:00am 10 15 mph 1015.6mb 58f
12:40am 13 15 mph 1015.6mb 59f
12:30am 11 14 mph 1015.6mb 59f
12:20am 11 14 mph 1015.6mb 59f
12:10am 13 16 mph 1015.9mb 60f
12:01am 14 18 mph 1015.9mb 60f
12:00am 14 17 mph 1015.9mb 60f
Mon 07/28 11:40pm 15 17 mph 1015.9mb 60f
11:30pm 16 18 mph 1015.9mb 61f
11:20pm 14 15 mph 1015.9mb 61f
11:10pm 14
mph
1015.9mb 61f
11:01pm 13 15 mph 1015.9mb 61f
11:00pm 13 15 mph 1016.3mb 61f
10:40pm 11 13 mph 1016.3mb 60f
10:30pm 11 13 mph 1016.3mb 61f
10:20pm 10 11 mph 1016.3mb 60f
10:10pm 11
mph
1016.6mb 61f
10:00pm 8 10 mph 1016.6mb 61f
9:40pm 8 10 mph 1016.6mb 61f
9:30pm 8 10 mph 1016.6mb 61f
9:20pm 9 10 mph 1016.6mb 61f
9:10pm 9 11 mph 1016.6mb 61f
9:00pm 10 11 mph 1016.6mb 61f
8:40pm 10 11 mph 1016.3mb 61f
8:30pm 9 11 mph 1016.3mb 61f
8:20pm 10 11 mph 1016.3mb 61f
8:10pm 9 10 mph 1016.3mb 61f
8:00pm 9 10 mph 1016.3mb 61f
7:40pm 10 13 mph 1016.3mb 61f
7:30pm 10 14 mph 1016.3mb 62f
7:20pm 11 15 mph 1016.3mb 62f
7:10pm 14
mph
1016.3mb 62f
7:00pm 11 14 mph 1016.3mb 62f
6:30pm 13 16 mph 1016.3mb 61f
6:24pm 13 18 mph 1016.3mb 61f
6:20pm 14 15 mph 1016.3mb 61f
6:10pm 13 17 mph 1016.3mb 61f
6:00pm 15 18 mph 1016.3mb 61f
5:40pm 14 16 mph 1016.3mb 61f
5:30pm 10 14 mph 1016.3mb 61f
5:24pm 11 20 mph 1016.3mb 61f
5:20pm 11 15 mph 1016.3mb 61f
5:10pm 11 15 mph 1016.3mb 61f
5:00pm 11 15 mph 1016.3mb 60f
4:40pm 13 17 mph 1016.3mb 60f
4:30pm 14 20 mph 1016.3mb 60f
4:23pm 11 20 mph 1016.3mb 60f
4:20pm 13 16 mph 1016.3mb 60f
4:10pm 17 18 mph 1016.3mb 60f
4:00pm 13 15 mph 1016.3mb 60f
3:40pm 16 20 mph 1016.3mb 59f
3:30pm 14 17 mph 1016.3mb 59f
3:23pm 14 21 mph 1016.3mb 59f
3:20pm 15 17 mph 1016.3mb 59f
3:10pm 13 16 mph 1016.3mb 59f
3:00pm 14 21 mph 1016.3mb 59f
2:40pm 16 18 mph 1016.3mb 59f
2:30pm 14 17 mph 1016.3mb 58f
2:22pm 15 23 mph 1016.3mb 59f
2:20pm 16 21 mph 1016.3mb 59f
2:10pm 20 23 mph 1015.9mb 58f
2:00pm 17 20 mph 1015.9mb 58f
1:40pm 20 22 mph 1015.9mb 58f
1:30pm 17 21 mph 1015.6mb 58f
1:22pm 17 23 mph 1015.6mb 59f
1:20pm 20 23 mph 1015.6mb 59f
1:10pm 21 23 mph 1015.2mb 59f
1:00pm 14 18 mph 1015.2mb 59f
12:40pm 16 20 mph 1015.2mb 59f
12:30pm 18 21 mph 1015.2mb 60f
12:22pm 18 24 mph 1015.2mb 60f
12:20pm 18 24 mph 1015.2mb 60f
12:10pm 16 21 mph 1015.2mb 60f
12:00pm 17 23 mph 1015.2mb 60f
11:40am 18 22 mph 1014.9mb 59f
11:30am 20 23 mph 1014.9mb 60f
11:21am 20 26 mph 1014.6mb 60f
11:20am 20 26 mph 1014.9mb 60f
11:10am 15 17 mph 1014.9mb 60f
11:00am 15 17 mph 1014.9mb 60f
10:40am 14 17 mph 1014.6mb 59f
10:30am 15 18 mph 1014.6mb 59f
10:21am 16 22 mph 1014.6mb 59f
10:20am 16 20 mph 1014.6mb 59f
10:10am 15 20 mph 1014.6mb 59f
10:00am 17 20 mph 1014.6mb 59f
9:50am 17 21 mph 1014.2mb 58f
9:40am 20 22 mph 1014.2mb 58f
9:30am 20 22 mph 1014.2mb 58f
9:20am 20 25 mph 1014.2mb 58f
9:10am 18 22 mph 1014.2mb 59f
9:00am 20 24 mph 1014.2mb 59f
8:50am 21 24 mph 1013.9mb 59f
8:40am 22 24 mph 1013.9mb 59f
8:30am 22 25 mph 1013.9mb 59f
8:20am 21 24 mph 1013.5mb 59f
8:10am 20 24 mph 1013.5mb 59f
8:00am 21 23 mph 1013.5mb 59f
7:50am 20 24 mph 1013.2mb 59f
7:40am 22 26 mph 1013.2mb 59f
7:30am 24 25 mph 1012.9mb 59f
7:20am 22 25 mph 1012.9mb 59f
7:19am 21
mph
1012.9mb 59f
7:10am 20 28 mph 1012.9mb 59f
7:00am 24 29 mph 1012.5mb 60f
6:56am 24 29 mph 1012.5mb 60f
6:50am 24 28 mph 1012.2mb 60f
6:40am 24 28 mph 1012.2mb 60f
6:30am 24 28 mph 1012.2mb 60f
6:20am 24 26 mph 1012.2mb 60f
6:19am 21
mph
1012.2mb 60f
6:10am 24 26 mph 1011.9mb 60f
6:00am 22 28 mph 1011.9mb 60f
5:50am 24 29 mph 1011.9mb 60f
5:40am 22 30 mph 1011.9mb 60f
5:30am 26 31 mph 1011.5mb 60f
5:20am 23 30 mph 1011.5mb 60f
5:10am 25 30 mph 1011.2mb 60f
5:00am 28 31 mph 1011.2mb 61f
4:50am 25 30 mph 1011.2mb 61f
4:40am 26 30 mph 1010.8mb 61f
4:30am 26 30 mph 1010.5mb 61f
4:20am 26 32 mph 1010.5mb 61f
4:19am 28 30 mph 1010.5mb 61f
4:10am 28 32 mph 1010.2mb 61f
4:00am 29 33 mph 1010.2mb 61f
3:50am 31 36 mph 1009.8mb 61f
3:40am 28 33 mph 1009.8mb 62f
3:30am 30 36 mph 1009.5mb 62f
3:20am 28 36 mph 1009.5mb 62f
3:18am 29 31 mph 1009.5mb 62f
3:10am 29 34 mph 1009.1mb 62f
3:00am 30 36 mph 1009.1mb 62f
2:50am 31 34 mph 1008.8mb 63f
2:40am 29 33 mph 1008.8mb 63f
2:30am 26 32 mph 1008.8mb 63f
2:20am 28 31 mph 1008.8mb 63f
2:17am 25
mph
1008.8mb 63f
2:10am 23 28 mph 1008.8mb 63f
2:00am 25 29 mph 1008.8mb 64f
1:50am 24 30 mph 1008.8mb 63f
1:40am 29 36 mph 1008.8mb 63f
1:30am 26 32 mph 1008.8mb 63f
1:20am 24 32 mph 1008.8mb 64f
1:17am 28
mph
1008.8mb 63f
1:10am 25 31 mph 1008.8mb 62f
1:00am 29 34 mph 1008.5mb 62f
12:50am 28 31 mph 1008.5mb 63f
12:40am 24 29 mph 1008.5mb 64f
12:30am 25 29 mph 1008.1mb 64f
12:20am 25 30 mph 1008.1mb 64f
12:16am 26
mph
1008.1mb 63f
12:11am 22 29 mph 1008.1mb 63f
12:10am 22 24 mph 1008.1mb 63f
12:00am 20 24 mph 1008.1mb 62f
Sun 07/27 11:50pm 20 26 mph 1008.1mb 62f
11:40pm 22 25 mph 1008.1mb 62f
11:30pm 22 25 mph 1008.1mb 62f
11:20pm 23 25 mph 1008.1mb 62f
11:16pm 23 25 mph 1007.8mb 62f
11:10pm 21 25 mph 1007.8mb 62f
11:00pm 21 25 mph 1008.1mb 62f
10:50pm 21 24 mph 1007.8mb 62f
10:40pm 18 22 mph 1007.8mb 63f
10:30pm 15 17 mph 1007.8mb 63f
10:20pm 14 15 mph 1007.8mb 63f
10:16pm 14 15 mph 1007.8mb 63f
10:10pm 13 14 mph 1007.8mb 63f
10:00pm 10 14 mph 1007.8mb 63f
9:50pm 11 14 mph 1007.8mb 63f
9:40pm 11 14 mph 1007.8mb 63f
9:30pm 11 14 mph 1008.1mb 63f
9:20pm 11 13 mph 1007.8mb 63f
9:15pm 10 13 mph 1007.8mb 63f
9:10pm 9 10 mph 1007.8mb 63f
9:00pm 9 10 mph 1007.8mb 63f
8:50pm 9 10 mph 1007.8mb 63f
8:40pm 9 10 mph 1007.5mb 63f
8:30pm 9 13 mph 1007.5mb 63f
8:20pm 10 11 mph 1007.5mb 63f
8:15pm 10 24 mph 1007.1mb 63f
8:10pm 10 11 mph 1007.1mb 63f
8:00pm 9 13 mph 1007.1mb 63f
7:50pm 13 17 mph 1006.8mb 63f
7:40pm 16 22 mph 1006.8mb 63f
7:30pm 22 24 mph 1006.4mb 63f
7:20pm 18 21 mph 1006.4mb 63f
7:14pm 18 23 mph 1006.4mb 63f
7:10pm 17 23 mph 1006.4mb 63f
7:00pm 20 22 mph 1006.1mb 64f
6:50pm 20 22 mph 1006.1mb 65f
6:30pm 6 24 mph 1005.1mb 66f
6:20pm 23 28 mph 1003.4mb 66f
6:14pm 22
mph
1003.4mb 65f
6:10pm 26 32 mph 1003mb 65f
6:00pm 28 31 mph 1003mb 65f
5:50pm 29 31 mph 1003.4mb 64f
5:42pm 25 30 mph 1003.7mb 64f
5:40pm 24 26 mph 1004.4mb 64f
5:30pm 20 23 mph 1005.1mb 63f
5:20pm 15 20 mph 1005.8mb 63f
5:13pm 16 22 mph 1006.1mb 62f
5:10pm 18 22 mph 1005.4mb 62f
5:00pm 15 21 mph 1005.8mb 62f
4:50pm 17 20 mph 1006.1mb 62f
4:40pm 18 20 mph 1005.8mb 62f
4:30pm 15 18 mph 1006.4mb 61f
4:20pm 18 23 mph 1006.8mb 61f
4:13pm 20 22 mph 1006.8mb 62f
4:10pm 22 25 mph 1006.4mb 62f
4:00pm 21 22 mph 1005.8mb 62f
3:50pm 18 24 mph 1005.8mb 61f
3:40pm 23 32 mph 1004.7mb 61f
3:30pm 33 41 mph 1005.8mb 62f
3:20pm 40 59 mph 1005.1mb 64f
3:13pm 29
mph
1004.4mb 68f
3:10pm 31 33 mph 1005.4mb 68f
3:07pm 3 32 mph 1005.4mb 70f
3:00pm 9 15 mph 1004.4mb 69f
2:50pm 15 17 mph 1004.1mb 68f
2:40pm 5 13 mph 1005.4mb 67f
2:30pm 11 13 mph 1004.7mb 67f
2:20pm 8 10 mph 1005.4mb 67f
2:12pm 8 15 mph 1005.4mb 67f
2:10pm 7 15 mph 1005.4mb 67f
2:00pm 10 14 mph 1005.1mb 67f
1:50pm 14
mph
1005.1mb 67f
1:40pm 13 14 mph 1005.4mb 68f
1:30pm 11 15 mph 1005.1mb 68f
1:20pm 11 13 mph 1005.1mb 68f
1:12pm 9 10 mph 1005.4mb 68f
1:10pm 9 10 mph 1005.4mb 68f
1:00pm 9
mph
1005.8mb 68f
12:50pm 6
mph
1005.8mb 69f
12:40pm 5 6 mph 1006.1mb 69f
12:30pm 3 5 mph 1006.4mb 69f
12:20pm  -  2 mph 1006.8mb 69f
12:11pm 2 16 mph 1007.1mb 69f
12:10pm 2 3 mph 1007.1mb 69f
12:00pm 3 5 mph 1007.1mb 71f
11:50am 5 9 mph 1006.4mb 71f
11:40am 10 16 mph 1006.8mb 69f
11:30am 15 16 mph 1006.4mb 68f
11:20am 11 13 mph 1006.4mb 68f
11:11am 5 14 mph 1006.8mb 69f
11:10am 5 7 mph 1006.8mb 69f
11:00am 6 7 mph 1007.1mb 68f
10:50am 2 6 mph 1007.5mb 68f
10:40am 5 8 mph 1007.5mb 68f
10:30am 7 13 mph 1007.5mb 68f
10:20am 13 14 mph 1007.8mb 67f
10:10am 10 14 mph 1006.8mb 68f
10:00am 13 14 mph 1007.8mb 68f
9:50am 13 16 mph 1007.8mb 68f
9:40am 1 5 mph 1007.5mb 70f
9:30am  -  5 mph 1007.1mb 69f
9:20am  -  7 mph 1007.1mb 68f
9:10am 6 9 mph 1007.1mb 69f
9:00am 6 7 mph 1007.1mb 68f
8:50am 7
mph
1007.1mb 68f
8:40am 6 9 mph 1007.1mb 68f
8:30am 8
mph
1007.1mb 68f
8:20am 3 5 mph 1006.8mb 69f
8:10am 5 7 mph 1006.8mb 68f
8:00am 3
mph
1006.4mb 68f
7:50am 3 5 mph 1006.8mb 67f
7:40am 6
mph
1006.8mb 67f
7:30am 6 7 mph 1006.8mb 67f
7:20am 6 7 mph 1006.8mb 67f
7:10am 7 8 mph 1006.8mb 67f
7:09am 7 13 mph 1006.8mb 67f
7:00am 8 9 mph 1007.1mb 68f
6:50am 8 9 mph 1007.1mb 68f
6:40am 8 9 mph 1007.5mb 67f
6:30am 9 11 mph 1007.5mb 67f
6:20am 10 11 mph 1007.5mb 68f
6:10am 11 13 mph 1007.5mb 67f
6:09am 11 13 mph 1007.5mb 67f
6:00am 10 11 mph 1007.5mb 67f
5:50am 10 11 mph 1007.5mb 67f
5:40am 9 11 mph 1007.5mb 67f
5:30am 9 11 mph 1007.5mb 66f
5:20am 10 11 mph 1007.8mb 66f
5:10am 8 9 mph 1007.5mb 66f
5:08am 7 14 mph 1007.5mb 66f
5:00am 8 9 mph 1007.5mb 66f
4:50am 7 9 mph 1007.5mb 66f
4:40am 8 11 mph 1007.5mb 66f
4:30am 10 14 mph 1007.8mb 66f
4:20am 13 14 mph 1007.8mb 66f
4:10am 13 15 mph 1007.8mb 67f
4:08am 13 16 mph 1008.1mb 67f
4:00am 11 14 mph 1008.1mb 67f
3:50am 13 15 mph 1008.1mb 67f
3:40am 14 16 mph 1008.1mb 67f
3:30am 13 15 mph 1008.5mb 67f
3:20am 11 15 mph 1008.5mb 67f
3:10am 13 14 mph 1008.5mb 67f
3:08am 11 14 mph 1008.5mb 67f
3:00am 13 14 mph 1008.5mb 67f
2:50am 11 13 mph 1008.5mb 67f
2:40am 10 11 mph 1008.1mb 67f
2:30am 10 11 mph 1008.1mb 67f
2:20am 10 13 mph 1008.5mb 67f
2:10am 10 13 mph 1008.5mb 68f
2:07am 10 17 mph 1008.5mb 68f
2:00am 11 14 mph 1008.5mb 68f
1:50am 13 15 mph 1008.5mb 68f
1:40am 15 16 mph 1008.5mb 68f
1:30am 15 17 mph 1008.5mb 69f
1:20am 14 15 mph 1008.5mb 69f
1:10am 15 17 mph 1008.5mb 69f
1:07am 16 17 mph 1008.5mb 69f
1:00am 15 16 mph 1008.5mb 69f
12:50am 14 15 mph 1008.5mb 69f
12:40am 13
mph
1008.5mb 69f
12:30am 13
mph
1008.5mb 69f
12:20am 10
mph
1008.5mb 69f
12:10am 9 10 mph 1008.5mb 69f
12:06am 9 20 mph 1008.5mb 69f
12:00am 10 13 mph 1008.5mb 70f
Sat 07/26 11:50pm 13 15 mph 1008.8mb 70f
11:40pm 15 16 mph 1008.8mb 70f
11:30pm 15 18 mph 1008.8mb 71f
11:20pm 18 20 mph 1008.8mb 71f
11:10pm 17 22 mph 1008.5mb 71f
11:06pm 20 26 mph 1008.5mb 72f
11:00pm 23 26 mph 1008.5mb 72f
10:50pm 23 25 mph 1008.1mb 72f
10:40pm 21 23 mph 1008.5mb 72f
10:30pm 17 22 mph 1008.5mb 72f
10:20pm 16 17 mph 1008.5mb 72f
10:10pm 14 16 mph 1008.5mb 72f
10:06pm 14 21 mph 1008.5mb 72f
10:00pm 15 16 mph 1008.5mb 73f
9:50pm 14 15 mph 1008.5mb 72f
9:40pm 14 16 mph 1008.5mb 73f
9:30pm 15 18 mph 1008.5mb 73f
9:20pm 16 20 mph 1008.1mb 73f
9:10pm 18 22 mph 1008.1mb 73f
9:05pm 17 24 mph 1008.1mb 73f
9:00pm 21 23 mph 1008.1mb 73f
8:50pm 6 17 mph 1007.1mb 73f
8:40pm 18 22 mph 1007.8mb 73f
8:30pm 21 24 mph 1007.5mb 73f
8:20pm 23 24 mph 1007.8mb 73f
8:10pm 22 23 mph 1007.8mb 74f
8:05pm 21 22 mph 1007.8mb 74f
8:00pm 21 22 mph 1007.8mb 74f
7:50pm 13 14 mph 1008.1mb 74f
7:40pm 11
mph
1008.5mb 74f
7:30pm 7 9 mph 1008.5mb 73f
7:20pm 7 9 mph 1008.1mb 73f
7:10pm 7 8 mph 1008.1mb 73f
7:04pm 6 9 mph 1008.1mb 72f
7:00pm 6 7 mph 1008.5mb 72f
6:50pm 3 5 mph 1008.5mb 73f
6:30pm 7 9 mph 1008.1mb 73f
6:20pm 5 9 mph 1008.5mb 73f
6:10pm 5 8 mph 1008.5mb 74f
6:04pm 2 11 mph 1008.5mb 73f
6:00pm 3 7 mph 1008.8mb 73f
5:50pm 6 7 mph 1008.5mb 74f
5:40pm 7 11 mph 1008.1mb 73f
5:30pm 5 6 mph 1008.5mb 73f
5:20pm 5 6 mph 1008.5mb 74f
5:10pm 5 10 mph 1008.8mb 74f
5:04pm 8 10 mph 1008.8mb 74f
5:00pm 8 9 mph 1008.8mb 74f
4:50pm 1 2 mph 1008.5mb 74f
4:40pm  -  3 mph 1008.8mb 74f
4:30pm  -  2 mph 1009.1mb 74f
4:20pm  -  5 mph 1009.1mb 74f
4:10pm 3 5 mph 1009.5mb 75f
4:03pm 2 11 mph 1009.1mb 74f
4:00pm 5 7 mph 1009.1mb 74f
3:50pm 3 9 mph 1009.5mb 73f
3:40pm 8 9 mph 1009.5mb 73f
3:30pm 8 9 mph 1009.5mb 73f
3:20pm 8 11 mph 1009.5mb 73f
3:10pm 10 11 mph 1009.8mb 73f
3:03pm 10
mph
1009.8mb 72f
3:00pm 9 10 mph 1009.8mb 72f
2:50pm 7 10 mph 1010.2mb 72f
2:40pm 5 8 mph 1010.2mb 72f
2:30pm 6 9 mph 1010.5mb 71f
2:20pm 7 10 mph 1010.5mb 71f
2:10pm 8 10 mph 1010.5mb 71f
2:02pm 9 10 mph 1010.2mb 70f
2:00pm 9 10 mph 1010.2mb 70f
1:50pm 7 9 mph 1010.2mb 70f
1:40pm 5 7 mph 1010.5mb 70f
1:30pm 3 8 mph 1010.5mb 70f
1:20pm 6 9 mph 1010.5mb 69f
1:10pm 6 7 mph 1010.8mb 69f
1:02pm 6 10 mph 1010.8mb 69f
1:00pm 6 8 mph 1010.8mb 69f
12:50pm 6 9 mph 1010.8mb 68f
12:40pm 6 8 mph 1010.5mb 68f
12:30pm 6 10 mph 1010.8mb 68f
12:20pm 6 8 mph 1010.8mb 68f
12:10pm 3 7 mph 1011.2mb 68f
12:02pm 5 16 mph 1011.2mb 67f
12:00pm 3 5 mph 1011.5mb 67f
11:50am 2 8 mph 1011.5mb 67f
11:40am 8 16 mph 1011.5mb 67f
11:30am 6 9 mph 1011.5mb 66f
11:20am 6 7 mph 1011.9mb 66f
11:10am 6 11 mph 1012.2mb 65f
11:01am 10 11 mph 1012.5mb 65f
11:00am 10 11 mph 1012.5mb 65f
10:50am 7 9 mph 1012.5mb 65f
10:40am 2 5 mph 1012.5mb 65f
10:30am 3 9 mph 1012.5mb 65f
10:20am 6 7 mph 1012.9mb 64f
10:10am 5 7 mph 1012.5mb 64f
10:01am 6 16 mph 1015.2mb 64f
10:00am 6 10 mph 1012.9mb 64f
9:50am 10 13 mph 1012.9mb 65f
9:40am 10 11 mph 1012.9mb 65f
9:30am 11 15 mph 1012.9mb 65f
9:20am 10 16 mph 1012.9mb 65f
9:10am 3 14 mph 1012.2mb 65f
9:00am 8 28 mph 1012.5mb 65f
8:50am 11 17 mph 1011.9mb 65f
8:40am 2 20 mph 1012.2mb 65f
8:30am 22 28 mph 1012.9mb 65f
8:20am 10 16 mph 1012.5mb 65f
8:10am 2 14 mph 1012.5mb 65f
8:00am 13 16 mph 1013.2mb 65f
7:50am 16 18 mph 1013.2mb 65f
7:40am 13 16 mph 1013.2mb 65f
7:30am 13 16 mph 1013.2mb 66f
7:20am 14 17 mph 1013.2mb 66f
7:10am 15 17 mph 1013.2mb 66f
7:00am 15 20 mph 1012.9mb 66f
6:50am 16 18 mph 1012.9mb 66f
6:40am 16 18 mph 1013.2mb 66f
6:30am 16 20 mph 1012.9mb 66f
6:20am 16 18 mph 1012.9mb 66f
6:10am 17 20 mph 1012.9mb 66f
6:00am 17 20 mph 1012.9mb 66f
5:50am 15 18 mph 1012.9mb 66f
5:40am 16 18 mph 1012.9mb 66f
5:30am 15 18 mph 1012.9mb 67f
5:20am 15 18 mph 1012.9mb 67f
5:10am 15 18 mph 1012.9mb 67f
5:00am 16 18 mph 1012.9mb 67f
4:50am 16 20 mph 1013.2mb 67f
4:40am 17 20 mph 1012.9mb 67f
4:30am 17 21 mph 1012.9mb 67f
4:21am 16 23 mph 1012.9mb 67f
4:20am 16 21 mph 1012.9mb 67f
4:10am 20 22 mph 1012.9mb 67f
4:00am 20 23 mph 1012.5mb 67f
3:50am 21 23 mph 1012.5mb 67f
3:40am 22 23 mph 1012.9mb 68f
3:30am 21 23 mph 1012.9mb 68f
3:20am 21 22 mph 1012.9mb 68f
3:10am 18 22 mph 1012.9mb 68f
3:00am 18 22 mph 1012.9mb 68f
2:50am 17 23 mph 1012.9mb 68f
2:40am 21 23 mph 1012.9mb 68f
2:30am 20 23 mph 1012.9mb 68f
2:20am 20 22 mph 1012.9mb 68f
2:10am 20 22 mph 1013.2mb 68f
2:00am 16 18 mph 1013.2mb 69f
1:50am 17 18 mph 1013.2mb 69f
1:40am 16 18 mph 1013.2mb 69f
1:30am 15 17 mph 1013.2mb 69f
1:20am 15 16 mph 1013.2mb 69f
1:19am 14 20 mph 1013.2mb 69f
1:10am 14 16 mph 1013.2mb 69f
1:00am 14 17 mph 1013.5mb 69f
12:50am 16 18 mph 1013.5mb 69f
12:40am 17 20 mph 1013.5mb 69f
12:30am 15 17 mph 1013.9mb 69f
12:20am 14 15 mph 1013.9mb 69f
12:19am 14 15 mph 1013.9mb 70f
12:10am 14 15 mph 1013.9mb 69f
12:00am 14 15 mph 1013.9mb 70f
Fri 07/25 11:50pm 13 15 mph 1013.9mb 69f
11:40pm 14 15 mph 1013.9mb 70f
11:30pm 13 14 mph 1013.9mb 70f
11:20pm 11 14 mph 1013.5mb 70f
11:19pm 11 15 mph 1013.5mb 70f
11:10pm 11 13 mph 1013.9mb 70f
11:00pm 8 13 mph 1013.5mb 70f
10:50pm 9 15 mph 1013.5mb 70f
10:40pm 15
mph
1013.9mb 70f
10:30pm 14 15 mph 1013.9mb 70f
10:20pm 14 15 mph 1013.9mb 70f
10:18pm 14 15 mph 1013.9mb 70f
10:10pm 13 14 mph 1013.9mb 70f
10:00pm 13 14 mph 1014.2mb 70f
9:50pm 11
mph
1014.2mb 70f
9:40pm 8 10 mph 1014.2mb 70f
9:30pm 10 11 mph 1014.2mb 70f
9:20pm 10 11 mph 1014.2mb 70f
9:18pm 10 17 mph 1014.6mb 70f
9:10pm 10 13 mph 1014.6mb 70f
9:00pm 11 13 mph 1014.2mb 70f
8:50pm 13 15 mph 1014.2mb 70f
8:40pm 14 15 mph 1013.9mb 70f
8:30pm 14 17 mph 1013.9mb 70f
8:20pm 16 20 mph 1013.9mb 70f
8:17pm 16 21 mph 1013.9mb 70f
8:10pm 17 20 mph 1013.9mb 70f
8:00pm 18 21 mph 1013.9mb 70f
7:50pm 16 18 mph 1013.9mb 70f
7:40pm 15 17 mph 1013.9mb 70f
7:30pm 11 13 mph 1013.9mb 70f
7:20pm 11 16 mph 1014.2mb 70f
7:17pm 14 22 mph 1014.2mb 70f
7:10pm 16 17 mph 1014.2mb 70f
7:00pm 16 17 mph 1014.2mb 70f
6:50pm 14 20 mph 1014.2mb 71f
6:30pm 18 21 mph 1014.2mb 71f
6:20pm 15 17 mph 1014.2mb 71f
6:16pm 10 16 mph 1014.2mb 71f
6:10pm 3 7 mph 1014.2mb 71f
6:00pm 5 7 mph 1014.2mb 71f
5:50pm 5 7 mph 1014.6mb 71f
5:40pm 5 7 mph 1014.6mb 71f
5:30pm 6 11 mph 1014.6mb 71f
5:20pm 10 14 mph 1014.2mb 71f
5:16pm 11 15 mph 1014.2mb 71f
5:10pm 13 14 mph 1014.2mb 71f
5:00pm 9 13 mph 1014.6mb 71f
4:50pm 7 11 mph 1014.6mb 71f
4:40pm 8 14 mph 1014.6mb 71f
4:30pm 10 15 mph 1014.6mb 71f
4:20pm 11 15 mph 1014.6mb 71f
4:16pm 11 15 mph 1014.6mb 71f
4:10pm 13 14 mph 1014.6mb 71f
4:00pm 9 14 mph 1014.6mb 71f
3:50pm 9 15 mph 1014.9mb 71f
3:40pm 11 15 mph 1014.9mb 71f